TimeCDT,TemperatureF,Dew PointF,Humidity,Sea Level PressureIn,VisibilityMPH,Wind Direction,Wind SpeedMPH,Gust SpeedMPH,PrecipitationIn,Events,Conditions,WindDirDegrees,DateUTC
12:15 AM,62.6,62.6,100,30.10,10.0,East,5.8,-,N/A,,Overcast,80,2013-07-18 05:15:00
12:35 AM,62.6,62.6,100,30.09,10.0,NE,3.5,-,N/A,,Overcast,50,2013-07-18 05:35:00
12:55 AM,62.6,62.6,100,30.08,10.0,NNE,4.6,-,N/A,,Overcast,20,2013-07-18 05:55:00
1:15 AM,62.6,62.6,100,30.07,10.0,NE,8.1,-,N/A,Rain,Light Rain,40,2013-07-18 06:15:00
1:35 AM,62.6,62.6,100,30.07,10.0,NNE,10.4,-,N/A,Rain,Light Rain,30,2013-07-18 06:35:00
1:55 AM,60.8,60.8,100,30.06,10.0,NE,9.2,-,N/A,,Overcast,40,2013-07-18 06:55:00
2:15 AM,59.0,59.0,100,30.05,10.0,ENE,11.5,18.4,N/A,Rain,Light Rain,60,2013-07-18 07:15:00
2:35 AM,59.0,59.0,100,30.04,10.0,ENE,10.4,-,N/A,Thunderstorm,Overcast,70,2013-07-18 07:35:00
2:55 AM,59.0,57.2,94,30.03,10.0,ENE,11.5,-,N/A,Thunderstorm,Mostly Cloudy,60,2013-07-18 07:55:00
3:15 AM,59.0,57.2,94,30.04,10.0,ENE,8.1,-,N/A,Rain-Thunderstorm,Light Thunderstorms and Rain,60,2013-07-18 08:15:00
3:35 AM,57.2,57.2,100,30.03,2.0,NE,9.2,-,0.23,Rain-Thunderstorm,Heavy Thunderstorms and Rain,40,2013-07-18 08:35:00
3:55 AM,59.0,57.2,94,29.96,10.0,ESE,24.2,31.1,0.23,Thunderstorm,Mostly Cloudy,110,2013-07-18 08:55:00
4:15 AM,59.0,57.2,94,29.96,10.0,East,13.8,24.2,N/A,,Overcast,100,2013-07-18 09:15:00
4:35 AM,59.0,57.2,94,30.02,10.0,North,9.2,28.8,N/A,Thunderstorm,Overcast,350,2013-07-18 09:35:00
4:55 AM,59.0,57.2,94,30.01,10.0,East,11.5,-,N/A,,Overcast,90,2013-07-18 09:55:00
5:15 AM,59.0,59.0,100,30.01,3.0,NE,8.1,-,0.06,Rain,Rain,50,2013-07-18 10:15:00
5:35 AM,59.0,59.0,100,29.97,10.0,ESE,9.2,-,0.06,,Overcast,110,2013-07-18 10:35:00
5:55 AM,59.0,57.2,94,29.95,10.0,SE,9.2,-,0.06,,Overcast,140,2013-07-18 10:55:00
6:15 AM,60.8,59.0,94,29.94,10.0,SE,8.1,-,N/A,,Mostly Cloudy,140,2013-07-18 11:15:00
6:35 AM,60.8,59.0,94,29.93,10.0,SE,5.8,-,N/A,,Scattered Clouds,140,2013-07-18 11:35:00
6:55 AM,60.8,59.0,94,29.93,10.0,North,3.5,-,N/A,,Clear,10,2013-07-18 11:55:00
7:15 AM,59.0,59.0,100,29.93,10.0,North,3.5,-,N/A,,Clear,10,2013-07-18 12:15:00
7:35 AM,60.8,60.8,100,29.92,10.0,NNE,3.5,-,N/A,,Clear,20,2013-07-18 12:35:00
7:55 AM,62.6,62.6,100,29.92,10.0,NE,4.6,-,N/A,,Clear,40,2013-07-18 12:55:00
8:15 AM,62.6,62.6,100,29.92,10.0,NE,8.1,-,N/A,,Partly Cloudy,50,2013-07-18 13:15:00
8:35 AM,62.6,62.6,100,29.91,10.0,ENE,5.8,-,N/A,,Partly Cloudy,70,2013-07-18 13:35:00
8:55 AM,64.4,64.4,100,29.91,10.0,East,4.6,-,N/A,,Scattered Clouds,80,2013-07-18 13:55:00
9:15 AM,64.4,62.6,94,29.90,10.0,SSE,4.6,-,N/A,,Partly Cloudy,150,2013-07-18 14:15:00
9:35 AM,66.2,64.4,94,29.89,10.0,SSE,6.9,-,N/A,,Clear,150,2013-07-18 14:35:00
9:55 AM,66.2,64.4,94,29.88,10.0,SSE,8.1,-,N/A,,Clear,160,2013-07-18 14:55:00
10:15 AM,68.0,64.4,88,29.88,10.0,South,9.2,-,N/A,,Clear,180,2013-07-18 15:15:00
10:35 AM,68.0,66.2,94,29.88,10.0,SSW,6.9,-,N/A,,Clear,210,2013-07-18 15:35:00
10:55 AM,68.0,66.2,94,29.88,10.0,SW,4.6,-,N/A,,Clear,230,2013-07-18 15:55:00
11:15 AM,68.0,66.2,94,29.89,10.0,West,5.8,-,N/A,,Mostly Cloudy,270,2013-07-18 16:15:00
11:35 AM,68.0,66.2,94,29.88,10.0,West,5.8,-,N/A,,Overcast,280,2013-07-18 16:35:00
11:55 AM,69.8,68.0,94,29.88,10.0,West,6.9,-,N/A,,Overcast,260,2013-07-18 16:55:00
12:15 PM,69.8,68.0,94,29.88,10.0,WSW,5.8,-,N/A,,Overcast,250,2013-07-18 17:15:00
12:35 PM,69.8,68.0,94,29.87,10.0,WSW,5.8,-,N/A,,Overcast,250,2013-07-18 17:35:00
12:55 PM,71.6,68.0,88,29.86,10.0,WSW,4.6,-,N/A,,Overcast,250,2013-07-18 17:55:00
1:15 PM,71.6,68.0,88,29.86,10.0,West,5.8,-,N/A,,Overcast,280,2013-07-18 18:15:00
1:35 PM,71.6,68.0,88,29.86,10.0,North,5.8,-,N/A,,Overcast,350,2013-07-18 18:35:00
1:55 PM,71.6,68.0,88,29.85,10.0,NW,3.5,-,N/A,,Overcast,310,2013-07-18 18:55:00
2:15 PM,71.6,68.0,88,29.84,10.0,Calm,Calm,-,N/A,,Overcast,0,2013-07-18 19:15:00
2:35 PM,73.4,68.0,83,29.84,10.0,Calm,Calm,-,N/A,,Overcast,0,2013-07-18 19:35:00
2:55 PM,75.2,68.0,78,29.83,10.0,NW,3.5,-,N/A,,Overcast,320,2013-07-18 19:55:00
3:15 PM,75.2,68.0,78,29.82,10.0,WSW,6.9,-,N/A,,Unknown,250,2013-07-18 20:15:00
3:35 PM,75.2,66.2,73,29.81,10.0,SSW,4.6,-,N/A,,Unknown,210,2013-07-18 20:35:00
3:55 PM,75.2,68.0,78,29.81,10.0,WSW,6.9,-,N/A,,Unknown,250,2013-07-18 20:55:00
4:15 PM,77.0,68.0,74,29.80,10.0,West,10.4,-,N/A,,Unknown,270,2013-07-18 21:15:00
5:15 PM,77.0,71.6,83,29.79,10.0,WSW,13.8,17.3,N/A,,Unknown,240,2013-07-18 22:15:00
5:35 PM,77.0,71.6,83,29.78,10.0,WSW,12.7,-,N/A,,Unknown,250,2013-07-18 22:35:00
5:55 PM,77.0,69.8,78,29.78,10.0,West,13.8,21.9,N/A,,Unknown,270,2013-07-18 22:55:00
6:15 PM,77.0,69.8,78,29.77,10.0,WSW,9.2,-,N/A,,Clear,250,2013-07-18 23:15:00
6:35 PM,77.0,71.6,83,29.76,10.0,WSW,11.5,17.3,N/A,,Clear,250,2013-07-18 23:35:00
6:55 PM,77.0,71.6,83,29.76,10.0,WSW,9.2,-,N/A,,Partly Cloudy,250,2013-07-18 23:55:00
7:15 PM,75.2,71.6,89,29.76,10.0,West,16.1,25.3,N/A,,Scattered Clouds,280,2013-07-19 00:15:00
7:35 PM,71.6,62.6,73,29.75,10.0,West,13.8,27.6,0.01,Thunderstorm,Mostly Cloudy,280,2013-07-19 00:35:00
7:55 PM,71.6,66.2,83,29.75,10.0,West,11.5,-,0.01,,Partly Cloudy,270,2013-07-19 00:55:00
8:15 PM,73.4,66.2,78,29.75,10.0,WNW,12.7,-,N/A,,Clear,290,2013-07-19 01:15:00
8:35 PM,71.6,62.6,73,29.78,10.0,NW,23.0,35.7,N/A,,Mostly Cloudy,310,2013-07-19 01:35:00
8:55 PM,69.8,62.6,78,29.78,10.0,NW,11.5,-,N/A,,Mostly Cloudy,320,2013-07-19 01:55:00
9:15 PM,68.0,62.6,83,29.77,10.0,NW,13.8,18.4,N/A,,Partly Cloudy,310,2013-07-19 02:15:00
9:35 PM,68.0,60.8,78,29.79,10.0,NW,16.1,-,N/A,,Clear,310,2013-07-19 02:35:00
9:55 PM,66.2,60.8,83,29.79,10.0,NW,23.0,27.6,N/A,,Clear,320,2013-07-19 02:55:00
10:15 PM,66.2,62.6,88,29.81,10.0,NW,19.6,29.9,N/A,,Clear,320,2013-07-19 03:15:00
10:35 PM,66.2,62.6,88,29.81,10.0,NW,17.3,25.3,N/A,,Clear,320,2013-07-19 03:35:00
10:55 PM,64.4,62.6,94,29.82,10.0,NW,20.7,25.3,N/A,,Clear,320,2013-07-19 03:55:00
11:15 PM,64.4,62.6,94,29.83,10.0,NNW,20.7,26.5,N/A,,Clear,330,2013-07-19 04:15:00
11:35 PM,64.4,62.6,94,29.84,10.0,NW,19.6,24.2,N/A,,Clear,320,2013-07-19 04:35:00
11:55 PM,62.6,60.8,94,29.85,10.0,NW,19.6,27.6,N/A,,Clear,320,2013-07-19 04:55:00